TimeCDT,TemperatureF,Dew PointF,Humidity,Sea Level PressureIn,VisibilityMPH,Wind Direction,Wind SpeedMPH,Gust SpeedMPH,PrecipitationIn,Events,Conditions,WindDirDegrees,DateUTC
12:15 AM,78.1,73.9,87,29.95,7.0,Calm,Calm,-,N/A,Thunderstorm,Thunderstorm,0,2013-09-02 05:15:00
12:35 AM,78.1,73.9,87,29.95,7.0,South,3.5,-,N/A,Thunderstorm,Thunderstorm,180,2013-09-02 05:35:00
12:55 AM,78.1,73.9,87,29.95,7.0,SSW,5.8,-,N/A,Thunderstorm,Clear,210,2013-09-02 05:55:00
1:15 AM,78.1,73.9,87,29.96,7.0,Calm,Calm,-,N/A,Thunderstorm,Thunderstorm,0,2013-09-02 06:15:00
1:35 AM,78.1,73.6,86,29.95,10.0,Calm,Calm,-,N/A,,Scattered Clouds,0,2013-09-02 06:35:00
1:55 AM,78.1,73.6,86,29.94,10.0,Calm,Calm,-,N/A,Thunderstorm,Scattered Clouds,0,2013-09-02 06:55:00
2:15 AM,78.1,73.9,87,29.93,10.0,SSW,3.5,-,N/A,,Clear,200,2013-09-02 07:15:00
2:35 AM,75.6,71.4,87,29.93,10.0,Calm,Calm,-,N/A,,Clear,0,2013-09-02 07:35:00
2:55 AM,75.6,71.6,87,29.93,10.0,Calm,Calm,-,N/A,,Clear,0,2013-09-02 07:55:00
3:15 AM,75.6,71.6,87,29.93,10.0,Calm,Calm,-,N/A,,Clear,0,2013-09-02 08:15:00
3:35 AM,75.6,71.6,87,29.93,7.0,SSW,3.5,-,N/A,,Clear,210,2013-09-02 08:35:00
3:55 AM,75.6,72.0,89,29.92,7.0,SW,3.5,-,N/A,,Clear,230,2013-09-02 08:55:00
4:15 AM,75.6,71.8,88,29.93,7.0,Calm,Calm,-,N/A,,Clear,0,2013-09-02 09:15:00
4:35 AM,75.6,71.8,88,29.94,7.0,SW,3.5,-,N/A,,Clear,220,2013-09-02 09:35:00
4:55 AM,75.6,71.8,88,29.94,7.0,Calm,Calm,-,N/A,,Clear,0,2013-09-02 09:55:00
5:15 AM,75.6,72.0,89,29.93,7.0,Calm,Calm,-,N/A,,Clear,0,2013-09-02 10:15:00
5:35 AM,75.6,72.1,89,29.94,5.0,Calm,Calm,-,N/A,,Clear,0,2013-09-02 10:35:00
5:55 AM,75.6,72.1,89,29.95,5.0,Calm,Calm,-,N/A,,Clear,0,2013-09-02 10:55:00
6:15 AM,75.6,72.0,89,29.96,5.0,Calm,Calm,-,N/A,,Clear,0,2013-09-02 11:15:00
6:35 AM,75.6,72.0,89,29.96,5.0,Calm,Calm,-,N/A,Thunderstorm,Clear,0,2013-09-02 11:35:00
6:55 AM,75.6,71.8,88,29.97,5.0,Calm,Calm,-,N/A,,Clear,0,2013-09-02 11:55:00
7:15 AM,75.6,71.8,88,29.99,5.0,Calm,Calm,-,N/A,,Mostly Cloudy,0,2013-09-02 12:15:00
7:35 AM,75.6,71.8,88,29.99,5.0,Calm,Calm,-,N/A,,Scattered Clouds,0,2013-09-02 12:35:00
7:55 AM,75.6,71.6,87,30.01,5.0,North,9.2,-,N/A,,Scattered Clouds,350,2013-09-02 12:55:00
8:15 AM,78.1,71.1,79,30.02,10.0,North,16.1,20.7,N/A,,Overcast,350,2013-09-02 13:15:00
8:35 AM,78.1,70.0,76,30.03,10.0,NNW,12.7,18.4,N/A,Thunderstorm,Mostly Cloudy,340,2013-09-02 13:35:00
8:55 AM,76.8,68.9,76,30.02,10.0,North,13.8,19.6,N/A,,Scattered Clouds,360,2013-09-02 13:55:00
9:15 AM,77.9,70.0,76,30.03,10.0,North,11.5,16.1,N/A,,Scattered Clouds,360,2013-09-02 14:15:00
9:35 AM,78.1,69.4,75,30.03,10.0,North,12.7,19.6,N/A,,Scattered Clouds,360,2013-09-02 14:35:00
9:55 AM,80.6,69.1,68,30.03,10.0,North,12.7,19.6,N/A,,Clear,10,2013-09-02 14:55:00
10:15 AM,80.6,67.3,64,30.03,10.0,North,13.8,20.7,N/A,,Clear,350,2013-09-02 15:15:00
10:35 AM,81.9,68.2,63,30.01,10.0,NNW,9.2,-,N/A,,Clear,340,2013-09-02 15:35:00
10:55 AM,83.3,66.7,57,30.00,10.0,NNW,10.4,-,N/A,,Clear,340,2013-09-02 15:55:00
11:15 AM,83.8,66.7,56,30.00,10.0,NW,12.7,-,N/A,,Clear,310,2013-09-02 16:15:00
11:35 AM,83.3,66.0,56,30.00,10.0,NW,4.6,-,N/A,,Clear,320,2013-09-02 16:35:00
11:55 AM,84.4,66.4,55,29.99,10.0,Calm,Calm,-,N/A,,Clear,0,2013-09-02 16:55:00
12:15 PM,84.7,64.6,51,29.98,10.0,WNW,6.9,-,N/A,,Clear,300,2013-09-02 17:15:00
12:35 PM,90.3,68.4,48,29.98,10.0,WSW,4.6,-,N/A,,Clear,250,2013-09-02 17:35:00
12:55 PM,90.7,68.4,48,29.97,10.0,WSW,4.6,-,N/A,,Clear,240,2013-09-02 17:55:00
1:15 PM,90.7,65.8,44,29.97,10.0,NNW,6.9,-,N/A,,Clear,340,2013-09-02 18:15:00
1:35 PM,90.7,68.2,47,29.96,10.0,WNW,6.9,-,N/A,,Clear,290,2013-09-02 18:35:00
1:55 PM,90.7,67.6,47,29.96,10.0,Calm,Calm,-,N/A,,Clear,0,2013-09-02 18:55:00
2:15 PM,90.7,65.8,44,29.95,10.0,NW,5.8,-,N/A,,Clear,310,2013-09-02 19:15:00
2:35 PM,90.7,66.4,45,29.93,10.0,NW,3.5,-,N/A,,Clear,320,2013-09-02 19:35:00
2:55 PM,90.7,68.5,48,29.93,10.0,NNW,5.8,-,N/A,,Clear,340,2013-09-02 19:55:00
3:15 PM,90.7,69.1,49,29.93,10.0,WNW,5.8,-,N/A,,Clear,300,2013-09-02 20:15:00
3:35 PM,90.7,68.5,48,29.93,10.0,NNW,4.6,-,N/A,,Clear,340,2013-09-02 20:35:00
3:55 PM,90.7,68.9,49,29.93,10.0,NNW,5.8,-,N/A,,Clear,340,2013-09-02 20:55:00
4:15 PM,90.7,70.0,50,29.92,10.0,West,3.5,-,N/A,,Clear,280,2013-09-02 21:15:00
4:35 PM,90.7,69.4,50,29.92,10.0,Calm,Calm,-,N/A,,Clear,0,2013-09-02 21:35:00
4:55 PM,90.7,69.8,50,29.92,10.0,SW,4.6,-,N/A,,Clear,230,2013-09-02 21:55:00
5:15 PM,90.7,70.7,52,29.92,10.0,Calm,Calm,-,N/A,,Clear,0,2013-09-02 22:15:00
5:35 PM,90.7,71.1,52,29.91,10.0,Calm,Calm,-,N/A,,Clear,0,2013-09-02 22:35:00
5:55 PM,90.7,72.7,55,29.91,10.0,Calm,Calm,-,N/A,,Clear,0,2013-09-02 22:55:00
6:15 PM,85.8,74.3,68,29.91,10.0,Calm,Calm,-,N/A,,Clear,0,2013-09-02 23:15:00
6:35 PM,84.6,74.1,71,29.92,10.0,Calm,Calm,-,N/A,,Clear,0,2013-09-02 23:35:00
6:55 PM,83.3,74.7,75,29.92,10.0,Calm,Calm,-,N/A,,Clear,0,2013-09-02 23:55:00
7:15 PM,82.0,74.8,79,29.93,10.0,Calm,Calm,-,N/A,,Clear,0,2013-09-03 00:15:00
7:35 PM,81.9,75.2,80,29.93,10.0,Calm,Calm,-,N/A,,Clear,0,2013-09-03 00:35:00
7:55 PM,80.6,74.8,83,29.93,10.0,Calm,Calm,-,N/A,,Clear,0,2013-09-03 00:55:00
8:15 PM,80.6,75.2,84,29.94,10.0,Calm,Calm,-,N/A,,Clear,0,2013-09-03 01:15:00
8:35 PM,80.6,75.6,85,29.93,10.0,Calm,Calm,-,N/A,,Clear,0,2013-09-03 01:35:00
8:55 PM,80.6,75.6,85,29.94,10.0,Calm,Calm,-,N/A,,Clear,0,2013-09-03 01:55:00
9:15 PM,78.4,73.8,85,29.94,10.0,Calm,Calm,-,N/A,,Clear,0,2013-09-03 02:15:00
9:35 PM,78.1,74.3,88,29.93,7.0,Calm,Calm,-,N/A,,Clear,0,2013-09-03 02:35:00
9:55 PM,78.1,74.3,88,29.94,10.0,Calm,Calm,-,N/A,,Clear,0,2013-09-03 02:55:00
10:15 PM,78.1,74.3,88,29.94,7.0,Calm,Calm,-,N/A,,Clear,0,2013-09-03 03:15:00
10:35 PM,78.3,74.1,87,29.94,10.0,Calm,Calm,-,N/A,,Scattered Clouds,0,2013-09-03 03:35:00
10:55 PM,78.1,74.3,88,29.95,10.0,Calm,Calm,-,N/A,,Mostly Cloudy,0,2013-09-03 03:55:00
11:15 PM,78.1,74.1,88,29.96,10.0,Calm,Calm,-,N/A,,Overcast,0,2013-09-03 04:15:00
11:35 PM,78.1,74.3,88,29.95,10.0,Calm,Calm,-,N/A,Thunderstorm,Mostly Cloudy,0,2013-09-03 04:35:00
11:55 PM,78.1,74.1,88,29.95,10.0,Calm,Calm,-,N/A,,Mostly Cloudy,0,2013-09-03 04:55:00